| time (UTC) | temp C | wind direction | speed KPH | gust KPH | rain 1hr cm | rain 24hr cm | rain mn cm | humidity % | barometer mb |
| 20260508111542 | 2 | 49 | 0.0 | 3.2 | 0.00 | 0.00 | 0.00 | 99 | 989.8 |
| 20260508110922 | 2 | 48 | 0.0 | 3.2 | 0.00 | 0.00 | 0.00 | 99 | 989.5 |
| 20260508110326 | 2 | 38 | 1.6 | 3.2 | 0.00 | 0.00 | 0.00 | 99 | 989.8 |
| 20260508105142 | 2 | 167 | 0.0 | 3.2 | 0.00 | 0.00 | 0.00 | 99 | 989.5 |
| 20260508103936 | 1 | 142 | 1.6 | 4.8 | 0.00 | 0.00 | 0.00 | 99 | 989.8 |
| 20260508103338 | 1 | 190 | 0.0 | 3.2 | 0.00 | 0.00 | 0.00 | 99 | 989.5 |
| 20260508102715 | 1 | 216 | 3.2 | 3.2 | 0.00 | 0.00 | 0.00 | 99 | 989.5 |
| 20260508102115 | 1 | 211 | 1.6 | 3.2 | 0.00 | 0.00 | 0.00 | 99 | 989.5 |
| 20260508101512 | 1 | 173 | 1.6 | 3.2 | 0.00 | 0.00 | 0.00 | 99 | 989.1 |
| 20260508100938 | 1 | 183 | 1.6 | 3.2 | 0.00 | 0.00 | 0.00 | 99 | 989.1 |
| 20260508100331 | 1 | 163 | 1.6 | 3.2 | 0.00 | 0.00 | 0.00 | 99 | 989.5 |
| 20260508095748 | 1 | 211 | 1.6 | 4.8 | 0.00 | 0.00 | 0.00 | 99 | 989.1 |
| 20260508095130 | 1 | 147 | 1.6 | 4.8 | 0.00 | 0.00 | 0.00 | 99 | 989.1 |
| 20260508094522 | 1 | 161 | 3.2 | 3.2 | 0.00 | 0.00 | 0.00 | 99 | 989.1 |
| 20260508093943 | 1 | 221 | 1.6 | 3.2 | 0.00 | 0.00 | 0.00 | 99 | 988.8 |
| 20260508092722 | 2 | 175 | 0.0 | 3.2 | 0.00 | 0.00 | 0.00 | 99 | 989.1 |
| 20260508092142 | 2 | 145 | 1.6 | 3.2 | 0.00 | 0.00 | 0.00 | 99 | 989.1 |
| 20260508091528 | 2 | 189 | 1.6 | 4.8 | 0.00 | 0.00 | 0.00 | 99 | 989.1 |
| 20260508090932 | 2 | 210 | 0.0 | 3.2 | 0.00 | 0.00 | 0.00 | 99 | 989.1 |
| 20260508085139 | 2 | 145 | 3.2 | 3.2 | 0.00 | 0.00 | 0.00 | 99 | 989.1 |
| 20260508084547 | 2 | 157 | 1.6 | 4.8 | 0.00 | 0.00 | 0.00 | 99 | 989.1 |
| 20260508083912 | 2 | 119 | 0.0 | 3.2 | 0.00 | 0.00 | 0.00 | 99 | 989.1 |
| 20260508083313 | 3 | 114 | 0.0 | 3.2 | 0.00 | 0.00 | 0.00 | 99 | 989.1 |
| 20260508082735 | 3 | 113 | 0.0 | 3.2 | 0.00 | 0.00 | 0.00 | 99 | 989.1 |
| 20260508082150 | 3 | 43 | 0.0 | 3.2 | 0.00 | 0.00 | 0.00 | 99 | 989.1 |
| 20260508081537 | 2 | 147 | 1.6 | 3.2 | 0.00 | 0.00 | 0.00 | 99 | 989.1 |
| 20260508080328 | 2 | 54 | 0.0 | 3.2 | 0.00 | 0.00 | 0.00 | 99 | 989.1 |
| 20260508075731 | 2 | 123 | 0.0 | 3.2 | 0.00 | 0.00 | 0.00 | 99 | 989.1 |
| 20260508075120 | 2 | 125 | 3.2 | 4.8 | 0.00 | 0.00 | 0.00 | 99 | 989.5 |
| 20260508074529 | 2 | 139 | 1.6 | 4.8 | 0.00 | 0.00 | 0.00 | 99 | 989.1 |
| 20260508073327 | 2 | 111 | 0.0 | 3.2 | 0.00 | 0.00 | 0.00 | 99 | 989.1 |
| 20260508072733 | 2 | 308 | 0.0 | 3.2 | 0.00 | 0.00 | 0.00 | 99 | 989.1 |
| 20260508072115 | 1 | 43 | 0.0 | 3.2 | 0.00 | 0.00 | 0.00 | 99 | 989.1 |
| 20260508071537 | 1 | 209 | 0.0 | 4.8 | 0.00 | 0.00 | 0.00 | 99 | 989.5 |
| 20260508070951 | 1 | 263 | 0.0 | 3.2 | 0.00 | 0.00 | 0.00 | 99 | 989.1 |
| 20260508070338 | 1 | 196 | 0.0 | 3.2 | 0.00 | 0.00 | 0.00 | 99 | 989.1 |
| 20260508065738 | 1 | 164 | 0.0 | 4.8 | 0.00 | 0.00 | 0.00 | 99 | 989.1 |
| 20260508065133 | 1 | 172 | 3.2 | 6.4 | 0.00 | 0.00 | 0.00 | 99 | 989.1 |
| 20260508064520 | 1 | 33 | 1.6 | 6.4 | 0.00 | 0.00 | 0.00 | 99 | 989.1 |
| 20260508063925 | 1 | 232 | 1.6 | 3.2 | 0.00 | 0.00 | 0.00 | 99 | 989.1 |
| 20260508063318 | 1 | 162 | 3.2 | 6.4 | 0.00 | 0.00 | 0.00 | 99 | 989.1 |
| 20260508062742 | 1 | 172 | 1.6 | 3.2 | 0.00 | 0.00 | 0.00 | 99 | 989.1 |
| 20260508062146 | 1 | 125 | 3.2 | 3.2 | 0.00 | 0.00 | 0.00 | 99 | 989.5 |
| 20260508061530 | 2 | 221 | 3.2 | 4.8 | 0.00 | 0.00 | 0.00 | 99 | 989.1 |
| 20260508060909 | 1 | 215 | 0.0 | 4.8 | 0.00 | 0.00 | 0.00 | 99 | 989.5 |
| 20260508060341 | 1 | 191 | 1.6 | 6.4 | 0.00 | 0.00 | 0.00 | 99 | 989.1 |
| 20260508055751 | 2 | 120 | 0.0 | 4.8 | 0.00 | 0.00 | 0.00 | 99 | 989.5 |
| 20260508055141 | 2 | 196 | 0.0 | 3.2 | 0.00 | 0.00 | 0.00 | 99 | 989.5 |
| 20260508054544 | 2 | 162 | 0.0 | 4.8 | 0.00 | 0.00 | 0.00 | 99 | 989.5 |
| 20260508052738 | 2 | 205 | 1.6 | 3.2 | 0.00 | 0.00 | 0.00 | 99 | 989.5 |
| 20260508052132 | 2 | 167 | 1.6 | 3.2 | 0.00 | 0.00 | 0.00 | 99 | 989.5 |
| 20260508051526 | 2 | 163 | 1.6 | 3.2 | 0.00 | 0.00 | 0.00 | 98 | 989.8 |
| 20260508050945 | 2 | 174 | 0.0 | 3.2 | 0.00 | 0.00 | 0.00 | 99 | 989.8 |
| 20260508050309 | 2 | 183 | 1.6 | 3.2 | 0.00 | 0.00 | 0.00 | 98 | 989.8 |
| 20260508045724 | 2 | 182 | 0.0 | 3.2 | 0.00 | 0.00 | 0.00 | 98 | 989.5 |
| 20260508045128 | 2 | 162 | 1.6 | 3.2 | 0.00 | 0.00 | 0.00 | 98 | 989.8 |
| 20260508044542 | 2 | 189 | 1.6 | 3.2 | 0.00 | 0.00 | 0.00 | 98 | 989.5 |
| 20260508043936 | 2 | 210 | 3.2 | 3.2 | 0.00 | 0.00 | 0.00 | 98 | 989.5 |
| 20260508043347 | 2 | 205 | 1.6 | 3.2 | 0.00 | 0.00 | 0.00 | 98 | 989.5 |
| 20260508042723 | 2 | 152 | 0.0 | 3.2 | 0.00 | 0.00 | 0.00 | 97 | 989.5 |
| 20260508042141 | 3 | 103 | 0.0 | 3.2 | 0.00 | 0.00 | 0.00 | 97 | 989.5 |
| 20260508041532 | 2 | 183 | 1.6 | 3.2 | 0.00 | 0.00 | 0.00 | 97 | 989.5 |
| 20260508040318 | 3 | 178 | 1.6 | 3.2 | 0.00 | 0.00 | 0.00 | 96 | 989.5 |
| 20260508035120 | 3 | 127 | 0.0 | 3.2 | 0.00 | 0.00 | 0.00 | 96 | 989.5 |
| 20260508034526 | 3 | 164 | 1.6 | 3.2 | 0.00 | 0.00 | 0.00 | 96 | 989.5 |
| 20260508033916 | 3 | 166 | 0.0 | 3.2 | 0.00 | 0.00 | 0.00 | 96 | 989.5 |
| 20260508033321 | 3 | 130 | 0.0 | 3.2 | 0.00 | 0.00 | 0.00 | 95 | 989.5 |
| 20260508032734 | 3 | 176 | 0.0 | 3.2 | 0.00 | 0.00 | 0.00 | 95 | 989.5 |
| 20260508032147 | 3 | 200 | 1.6 | 3.2 | 0.00 | 0.00 | 0.00 | 94 | 989.5 |
| 20260508031526 | 3 | 202 | 0.0 | 3.2 | 0.00 | 0.00 | 0.00 | 94 | 989.5 |
| 20260508030931 | 3 | 175 | 1.6 | 3.2 | 0.00 | 0.00 | 0.00 | 94 | 989.5 |
| 20260508030311 | 4 | 170 | 0.0 | 3.2 | 0.00 | 0.00 | 0.00 | 93 | 989.5 |
| 20260508025719 | 4 | 100 | 0.0 | 3.2 | 0.00 | 0.00 | 0.00 | 92 | 989.5 |
| 20260508025114 | 4 | 202 | 1.6 | 3.2 | 0.00 | 0.00 | 0.00 | 92 | 989.8 |
| 20260508024525 | 4 | 205 | 1.6 | 3.2 | 0.00 | 0.00 | 0.00 | 91 | 989.5 |
| 20260508023946 | 5 | 189 | 0.0 | 3.2 | 0.00 | 0.00 | 0.00 | 91 | 989.5 |
| 20260508023341 | 5 | 180 | 1.6 | 3.2 | 0.00 | 0.00 | 0.00 | 89 | 989.5 |
| 20260508022723 | 5 | 214 | 1.6 | 3.2 | 0.00 | 0.00 | 0.00 | 89 | 989.5 |
| 20260508021515 | 5 | 176 | 0.0 | 3.2 | 0.00 | 0.00 | 0.00 | 87 | 989.5 |
| 20260508020945 | 5 | 180 | 0.0 | 3.2 | 0.00 | 0.00 | 0.00 | 86 | 989.5 |
| 20260508020349 | 5 | 206 | 0.0 | 3.2 | 0.00 | 0.00 | 0.00 | 85 | 989.5 |
| 20260508015738 | 6 | 210 | 1.6 | 3.2 | 0.00 | 0.00 | 0.00 | 83 | 989.5 |
| 20260508015145 | 6 | 177 | 0.0 | 3.2 | 0.00 | 0.00 | 0.00 | 82 | 989.5 |
| 20260508014517 | 6 | 195 | 0.0 | 3.2 | 0.00 | 0.00 | 0.00 | 81 | 989.5 |
| 20260508012725 | 7 | 204 | 1.6 | 3.2 | 0.00 | 0.00 | 0.00 | 79 | 989.1 |
| 20260508011528 | 7 | 217 | 3.2 | 3.2 | 0.00 | 0.00 | 0.00 | 75 | 988.8 |
| 20260508010935 | 7 | 189 | 0.0 | 3.2 | 0.00 | 0.00 | 0.00 | 73 | 988.8 |
| 20260508010349 | 7 | 200 | 1.6 | 3.2 | 0.00 | 0.00 | 0.00 | 73 | 988.4 |
| 20260508005736 | 8 | 193 | 0.0 | 3.2 | 0.00 | 0.00 | 0.00 | 71 | 988.4 |
| 20260508003908 | 9 | 193 | 0.0 | 3.2 | 0.00 | 0.00 | 0.00 | 68 | 988.4 |
| 20260508003340 | 10 | 202 | 1.6 | 3.2 | 0.00 | 0.00 | 0.00 | 66 | 988.4 |
| 20260508002734 | 10 | 206 | 1.6 | 4.8 | 0.00 | 0.00 | 0.00 | 62 | 988.4 |
| 20260508002110 | 10 | 204 | 3.2 | 4.8 | 0.00 | 0.00 | 0.00 | 60 | 988.4 |
| 20260508001532 | 11 | 203 | 3.2 | 3.2 | 0.00 | 0.00 | 0.00 | 59 | 988.4 |
| 20260508000949 | 11 | 197 | 3.2 | 3.2 | 0.00 | 0.00 | 0.00 | 57 | 988.4 |
| 20260508000335 | 12 | 218 | 0.0 | 3.2 | 0.00 | 0.00 | 0.00 | 53 | 988.1 |
| 20260507235747 | 12 | 23 | 1.6 | 3.2 | 0.00 | 0.00 | 0.00 | 49 | 988.4 |
| 20260507235119 | 12 | 54 | 3.2 | 4.8 | 0.00 | 0.00 | 0.00 | 50 | 988.4 |
| 20260507234551 | 12 | 349 | 1.6 | 4.8 | 0.00 | 0.00 | 0.00 | 49 | 988.1 |
| 20260507233938 | 13 | 174 | 3.2 | 4.8 | 0.00 | 0.00 | 0.00 | 46 | 988.1 |
| 20260507233347 | 13 | 156 | 3.2 | 9.7 | 0.00 | 0.00 | 0.00 | 46 | 988.1 |
| 20260507231535 | 13 | 28 | 4.8 | 14.5 | 0.00 | 0.00 | 0.00 | 45 | 988.1 |
| 20260507225744 | 14 | 237 | 1.6 | 16.1 | 0.00 | 0.00 | 0.00 | 45 | 988.1 |
| 20260507225120 | 14 | 193 | 3.2 | 9.7 | 0.00 | 0.00 | 0.00 | 45 | 987.8 |
| 20260507224527 | 15 | 226 | 4.8 | 11.3 | 0.00 | 0.00 | 0.00 | 42 | 988.1 |
| 20260507223918 | 15 | 309 | 0.0 | 12.9 | 0.00 | 0.00 | 0.00 | 41 | 987.8 |
| 20260507223338 | 15 | 73 | 3.2 | 16.1 | 0.00 | 0.00 | 0.00 | 41 | 987.8 |
| 20260507222719 | 16 | 347 | 0.0 | 19.3 | 0.00 | 0.00 | 0.00 | 39 | 988.1 |
| 20260507221516 | 15 | 149 | 1.6 | 11.3 | 0.00 | 0.00 | 0.00 | 41 | 988.1 |
| 20260507220312 | 15 | 205 | 3.2 | 14.5 | 0.00 | 0.00 | 0.00 | 44 | 987.8 |
| 20260507215738 | 15 | 154 | 1.6 | 16.1 | 0.00 | 0.00 | 0.00 | 44 | 987.8 |
| 20260507215144 | 16 | 324 | 6.4 | 9.7 | 0.00 | 0.00 | 0.00 | 41 | 987.8 |
| 20260507213944 | 16 | 253 | 8.0 | 17.7 | 0.00 | 0.00 | 0.00 | 40 | 987.8 |
| 20260507212737 | 17 | 333 | 4.8 | 16.1 | 0.00 | 0.00 | 0.00 | 39 | 987.4 |
| 20260507211532 | 16 | 352 | 9.7 | 20.9 | 0.00 | 0.00 | 0.00 | 41 | 987.1 |
| 20260507210928 | 16 | 9 | 1.6 | 9.7 | 0.00 | 0.00 | 0.00 | 41 | 986.7 |
| 20260507210344 | 17 | 302 | 4.8 | 8.0 | 0.00 | 0.00 | 0.00 | 39 | 986.7 |
| 20260507204547 | 17 | 282 | 4.8 | 16.1 | 0.00 | 0.00 | 0.00 | 39 | 986.7 |
| 20260507202737 | 17 | 221 | 9.7 | 11.3 | 0.00 | 0.00 | 0.00 | 35 | 987.1 |
| 20260507202152 | 16 | 340 | 6.4 | 14.5 | 0.00 | 0.00 | 0.00 | 37 | 987.1 |
| 20260507201538 | 17 | 216 | 3.2 | 17.7 | 0.00 | 0.00 | 0.00 | 37 | 987.1 |
| 20260507200938 | 17 | 203 | 4.8 | 20.9 | 0.00 | 0.00 | 0.00 | 34 | 986.7 |
| 20260507195752 | 17 | 37 | 3.2 | 14.5 | 0.00 | 0.00 | 0.00 | 37 | 987.1 |
| 20260507195151 | 17 | 0 | 1.6 | 11.3 | 0.00 | 0.00 | 0.00 | 40 | 987.1 |
| 20260507194514 | 17 | 255 | 1.6 | 20.9 | 0.00 | 0.00 | 0.00 | 36 | 987.1 |
| 20260507193951 | 17 | 16 | 8.0 | 20.9 | 0.00 | 0.00 | 0.00 | 36 | 987.1 |
| 20260507192732 | 16 | 205 | 3.2 | 8.0 | 0.00 | 0.00 | 0.00 | 42 | 987.4 |
| 20260507192146 | 16 | 66 | 1.6 | 14.5 | 0.00 | 0.00 | 0.00 | 38 | 987.4 |
| 20260507191535 | 16 | 341 | 4.8 | 17.7 | 0.00 | 0.00 | 0.00 | 39 | 987.1 |
| 20260507190936 | 16 | 33 | 3.2 | 20.9 | 0.00 | 0.00 | 0.00 | 40 | 987.4 |
| 20260507185724 | 17 | 189 | 4.8 | 12.9 | 0.00 | 0.00 | 0.00 | 38 | 987.4 |
| 20260507185150 | 17 | 223 | 3.2 | 17.7 | 0.00 | 0.00 | 0.00 | 38 | 987.8 |
| 20260507184549 | 17 | 35 | 4.8 | 22.5 | 0.00 | 0.00 | 0.00 | 39 | 987.8 |
| 20260507183952 | 17 | 217 | 1.6 | 16.1 | 0.00 | 0.00 | 0.00 | 38 | 987.4 |
| 20260507183308 | 17 | 224 | 22.5 | 22.5 | 0.00 | 0.00 | 0.00 | 39 | 987.4 |
| 20260507182714 | 17 | 231 | 6.4 | 16.1 | 0.00 | 0.00 | 0.00 | 40 | 987.8 |
| 20260507182150 | 17 | 226 | 4.8 | 12.9 | 0.00 | 0.00 | 0.00 | 39 | 987.1 |
| 20260507181510 | 17 | 214 | 6.4 | 32.2 | 0.00 | 0.00 | 0.00 | 38 | 987.4 |
| 20260507180928 | 17 | 232 | 4.8 | 19.3 | 0.00 | 0.00 | 0.00 | 38 | 987.4 |
| 20260507180324 | 17 | 149 | 8.0 | 16.1 | 0.00 | 0.00 | 0.00 | 40 | 987.4 |
| 20260507174520 | 17 | 209 | 8.0 | 17.7 | 0.00 | 0.00 | 0.00 | 39 | 987.4 |
| 20260507173945 | 17 | 27 | 4.8 | 8.0 | 0.00 | 0.00 | 0.00 | 43 | 987.8 |
| 20260507172732 | 17 | 210 | 3.2 | 8.0 | 0.00 | 0.00 | 0.00 | 44 | 987.8 |
| 20260507172129 | 16 | 241 | 3.2 | 14.5 | 0.00 | 0.00 | 0.00 | 46 | 987.8 |
| 20260507170911 | 16 | 28 | 3.2 | 17.7 | 0.00 | 0.00 | 0.00 | 46 | 987.8 |
| 20260507170321 | 16 | 249 | 4.8 | 14.5 | 0.00 | 0.00 | 0.00 | 42 | 987.8 |
| 20260507165750 | 16 | 359 | 6.4 | 14.5 | 0.00 | 0.00 | 0.00 | 41 | 988.1 |
| 20260507165135 | 16 | 200 | 6.4 | 14.5 | 0.00 | 0.00 | 0.00 | 41 | 988.1 |
| 20260507163923 | 17 | 232 | 8.0 | 16.1 | 0.00 | 0.00 | 0.00 | 39 | 988.1 |
| 20260507162722 | 16 | 222 | 6.4 | 11.3 | 0.00 | 0.00 | 0.00 | 45 | 988.1 |
| 20260507162152 | 15 | 338 | 1.6 | 9.7 | 0.00 | 0.00 | 0.00 | 47 | 988.1 |
| 20260507161555 | 16 | 230 | 3.2 | 11.3 | 0.00 | 0.00 | 0.00 | 44 | 988.1 |
| 20260507160923 | 16 | 325 | 4.8 | 19.3 | 0.00 | 0.00 | 0.00 | 44 | 988.1 |
| 20260507160346 | 16 | 156 | 3.2 | 19.3 | 0.00 | 0.00 | 0.00 | 42 | 988.4 |
| 20260507155731 | 16 | 209 | 6.4 | 9.7 | 0.00 | 0.00 | 0.00 | 42 | 988.1 |
| 20260507155123 | 16 | 232 | 11.3 | 19.3 | 0.00 | 0.00 | 0.00 | 43 | 988.4 |
| 20260507154519 | 15 | 276 | 3.2 | 11.3 | 0.00 | 0.00 | 0.00 | 46 | 988.4 |
| 20260507153911 | 16 | 126 | 1.6 | 14.5 | 0.00 | 0.00 | 0.00 | 51 | 988.4 |
| 20260507153316 | 16 | 234 | 3.2 | 9.7 | 0.00 | 0.00 | 0.00 | 45 | 988.4 |
| 20260507152750 | 16 | 130 | 0.0 | 14.5 | 0.00 | 0.00 | 0.00 | 44 | 988.1 |
| 20260507151534 | 15 | 262 | 3.2 | 4.8 | 0.00 | 0.00 | 0.00 | 46 | 988.1 |
| 20260507150347 | 15 | 142 | 3.2 | 12.9 | 0.00 | 0.00 | 0.00 | 47 | 988.4 |
| 20260507145715 | 15 | 190 | 6.4 | 12.9 | 0.00 | 0.00 | 0.00 | 43 | 988.4 |
| 20260507145111 | 15 | 13 | 3.2 | 12.9 | 0.00 | 0.00 | 0.00 | 47 | 988.4 |
| 20260507144515 | 15 | 348 | 3.2 | 8.0 | 0.00 | 0.00 | 0.00 | 47 | 988.8 |
| 20260507143939 | 14 | 351 | 1.6 | 8.0 | 0.00 | 0.00 | 0.00 | 49 | 988.4 |
| 20260507143320 | 14 | 346 | 4.8 | 11.3 | 0.00 | 0.00 | 0.00 | 49 | 988.4 |
| 20260507142123 | 15 | 238 | 1.6 | 12.9 | 0.00 | 0.00 | 0.00 | 51 | 988.4 |
| 20260507141517 | 14 | 143 | 3.2 | 9.7 | 0.00 | 0.00 | 0.00 | 49 | 988.4 |
| 20260507140926 | 14 | 281 | 3.2 | 11.3 | 0.00 | 0.00 | 0.00 | 53 | 988.4 |
| 20260507140342 | 13 | 258 | 1.6 | 11.3 | 0.00 | 0.00 | 0.00 | 55 | 988.4 |
| 20260507135143 | 12 | 320 | 3.2 | 8.0 | 0.00 | 0.00 | 0.00 | 60 | 988.8 |
| 20260507134519 | 12 | 11 | 3.2 | 6.4 | 0.00 | 0.00 | 0.00 | 61 | 988.8 |
| 20260507133319 | 12 | 346 | 0.0 | 9.7 | 0.00 | 0.00 | 0.00 | 68 | 989.1 |
| 20260507132743 | 11 | 341 | 1.6 | 11.3 | 0.00 | 0.00 | 0.00 | 69 | 989.1 |
| 20260507132122 | 12 | 300 | 3.2 | 8.0 | 0.00 | 0.00 | 0.00 | 69 | 989.1 |
| 20260507130911 | 11 | 87 | 3.2 | 4.8 | 0.00 | 0.00 | 0.00 | 77 | 989.1 |
| 20260507130311 | 10 | 42 | 0.0 | 9.7 | 0.00 | 0.00 | 0.00 | 78 | 989.5 |
| 20260507124550 | 9 | 48 | 4.8 | 8.0 | 0.00 | 0.00 | 0.00 | 87 | 989.5 |
| 20260507123943 | 8 | 338 | 4.8 | 11.3 | 0.00 | 0.00 | 0.00 | 89 | 989.5 |
| 20260507123343 | 8 | 345 | 3.2 | 4.8 | 0.00 | 0.00 | 0.00 | 92 | 989.5 |
| 20260507122748 | 7 | 42 | 4.8 | 6.4 | 0.00 | 0.00 | 0.00 | 95 | 989.5 |
| 20260507122127 | 6 | 353 | 1.6 | 6.4 | 0.00 | 0.00 | 0.00 | 97 | 989.5 |
| 20260507120340 | 5 | 49 | 4.8 | 6.4 | 0.00 | 0.00 | 0.00 | 99 | 989.5 |
| 20260507115712 | 4 | 16 | 3.2 | 6.4 | 0.00 | 0.00 | 0.00 | 99 | 989.1 |
| 20260507115146 | 4 | 32 | 3.2 | 6.4 | 0.00 | 0.00 | 0.00 | 99 | 989.1 |
| 20260507114527 | 3 | 5 | 0.0 | 4.8 | 0.00 | 0.00 | 0.00 | 99 | 989.5 |
| 20260507113916 | 3 | 348 | 3.2 | 4.8 | 0.00 | 0.00 | 0.00 | 99 | 989.5 |
| 20260507113326 | 3 | 129 | 0.0 | 4.8 | 0.00 | 0.00 | 0.00 | 99 | 989.5 |
| 20260507112752 | 3 | 6 | 1.6 | 3.2 | 0.00 | 0.00 | 0.00 | 99 | 989.1 |